SCP
0 0 0 0 0 0 1 1 1 1 1 1 1 1 1 0 0 0 0 0 0 0 0 0 0 0 0 0 0 0 0 0 0 0 0 0 0 0 0 0 0 0 0
0 0 0 0 0 0 1 1 1 1 1 1 1 1 1 1 0 0 0 0 0 0 0 0 0 0 0 0 0 0 0 0 0 0 0 0 0 0 0 0 0 0 0
0 0 0 0 0 0 1 1 1 1 1 1 1 1 1 1 0 0 0 0 0 0 0 0 0 0 0 0 0 0 0 0 0 0 0 0 0 0 0 0 0 0 0
0 0 0 0 0 0 1 1 1 1 1 1 1 1 1 1 0 0 0 0 0 0 0 0 0 0 0 0 0 0 0 0 0 0 0 0 0 0 0 0 0 0 0
0 0 0 0 1 1 1 1 1 1 1 1 1 1 1 1 0 0 0 0 0 0 0 0 0 0 0 0 0 0 0 0 0 0 0 0 0 0 0 0 0 0 0
0 0 0 0 1 1 1 1 1 1 1 1 1 1 1 1 1 1 1 1 0 0 0 0 0 0 0 0 0 0 0 0 0 0 0 0 0 0 0 0 0 0 0
0 0 0 0 1 1 1 1 1 1 1 1 1 1 1 1 1 1 1 1 0 0 0 0 0 0 0 0 0 0 0 0 0 0 0 0 0 0 0 0 0 0 0
0 0 0 0 1 1 1 1 1 1 1 1 1 1 1 1 1 1 1 1 0 0 0 0 0 0 0 0 0 0 0 0 0 0 0 0 0 0 0 0 0 0 0
0 0 0 1 1 1 1 1 1 1 1 1 1 1 1 1 1 1 1 0 0 0 0 0 0 0 0 0 0 0 0 0 0 0 0 0 0 0 0 0 0 0 0
0 0 1 1 1 1 1 1 1 1 1 1 1 1 1 1 0 0 0 0 0 0 0 0 0 0 0 0 0 0 0 0 0 0 0 0 0 0 0 0 0 0 0
0 1 1 1 1 1 1 1 1 1 1 1 1 1 0 0 0 0 0 0 0 0 0 0 0 0 0 0 0 0 0 0 0 0 0 0 0 0 0 0 0 0 0
0 0 1 1 1 1 1 1 1 1 1 0 0 0 0 0 0 0 0 0 0 0 0 0 0 0 0 0 0 0 0 0 0 0 0 0 0 0 0 0 0 0 0
0 0 0 0 0 0 0 0 0 0 0 0 0 0 0 0 0 0 0 0 0 0 0 0 0 0 0 0 0 0 0 0 0 0 0 0 0 0 0 0 0 0 0
0 0 0 0 0 0 0 0 0 0 0 0 0 0 0 0 0 0 0 0 0 0 0 0 0 0 0 0 0 0 0 0 0 0 0 0 0 0 0 0 0 0 0
0 0 0 0 0 0 0 0 0 0 0 0 0 0 0 0 0 0 0 0 0 0 0 0 0 0 0 0 0 0 0 0 0 0 0 0 0 0 0 0 0 0 0
0 0 0 0 0 0 0 0 0 0 0 0 0 0 0 0 0 0 0 0 0 0 0 0 0 0 0 0 0 0 0 0 0 0 0 0 0 0 0 0 0 0 0
0 0 0 0 0 0 0 0 0 0 0 0 0 0 0 0 0 0 0 0 0 0 0 0 0 0 0 0 0 0 0 0 0 0 0 0 0 0 0 0 0 0 0
0 0 0 0 0 0 0 0 0 0 0 0 0 0 0 0 0 0 0 0 0 0 0 0 0 0 0 0 0 0 0 0 0 0 0 0 0 0 0 0 0 0 0
0 0 0 0 0 0 0 0 0 0 0 0 0 0 0 0 0 0 0 0 0 0 0 0 0 0 0 0 0 0 0 0 0 0 0 0 0 0 0 0 0 0 0
0 0 0 0 0 0 0 0 0 0 0 0 0 0 0 0 0 0 0 0 0 0 0 0 0 0 0 0 0 0 0 0 0 0 0 0 0 0 0 0 0 0 0
0 0 0 0 0 0 0 0 0 0 0 0 0 0 0 0 0 0 0 0 0 0 0 0 0 0 0 0 0 0 0 0 0 0 0 0 0 0 0 0 0 0 0
0 0 0 0 0 0 0 0 0 0 0 0 0 0 0 0 0 0 0 0 0 0 0 0 0 0 0 0 0 0 0 0 0 0 0 0 0 0 0 0 0 0 0
0 0 0 0 0 0 0 0 0 0 0 0 0 0 0 0 0 0 0 0 0 0 0 0 0 0 0 0 0 0 0 0 0 0 0 0 0 0 0 0 0 0 0
0 0 0 0 0 0 0 0 0 0 0 0 0 0 0 0 0 0 0 0 0 0 0 0 0 0 0 0 0 0 0 0 0 0 0 0 0 0 0 0 0 0 0
0 0 0 0 0 0 0 0 0 0 0 0 0 0 0 0 0 0 0 0 0 0 0 0 0 0 0 0 0 0 0 0 0 0 0 0 0 0 0 0 0 0 0
0 0 0 0 0 0 0 0 0 0 0 0 0 0 0 0 0 0 0 0 0 0 0 0 0 0 0 0 0 0 0 0 0 0 0 0 0 0 0 0 0 0 0
Wind_Speed
6 5 6 5 5 5 5 5 5 5 4 3 3 3 3 3 3 3 3 4 4 4 4 3 3 4 4 4 4 4 6 6 4 5 5 6 7 6 6 6 6 6 6
6 6 6 5 5 5 5 5 5 5 5 3 2 2 3 3 2 2 3 4 3 4 4 4 4 4 3 4 4 5 5 5 4 4 5 5 5 6 7 6 6 6 6
6 6 6 6 6 5 5 5 5 5 4 4 3 2 2 3 3 3 3 4 4 4 4 4 4 4 5 4 5 6 6 5 5 5 4 4 4 3 5 6 5 6 6
6 6 6 6 6 5 5 5 5 4 4 5 4 4 4 3 3 3 2 3 4 4 4 5 5 5 5 4 5 5 5 6 5 5 5 4 4 4 3 4 5 5 6
6 6 6 6 5 5 4 5 5 4 4 4 4 4 4 3 2 3 3 4 4 5 5 5 5 5 5 4 5 4 5 5 6 5 5 5 5 6 5 4 4 5 5
6 6 6 6 5 4 4 4 4 4 4 4 4 4 4 4 3 3 3 3 3 3 4 4 4 5 4 4 5 5 6 6 5 6 5 5 5 5 5 5 5 5 5
6 6 6 5 5 5 4 4 4 4 4 4 4 4 4 4 4 3 3 3 3 3 4 4 5 5 5 5 6 6 6 6 6 7 6 6 6 5 5 5 5 5 4
5 5 5 5 5 5 4 4 4 4 4 4 3 3 4 4 3 3 3 3 3 3 3 5 5 6 6 6 6 6 7 6 7 8 7 6 6 6 6 6 5 6 5
4 4 4 5 4 4 4 3 3 3 3 3 3 4 4 4 3 3 4 3 3 4 4 5 6 6 7 7 7 6 7 6 7 8 8 8 6 6 7 6 6 6 7
4 4 4 4 4 4 3 3 2 2 2 2 3 2 3 3 3 3 3 4 4 4 5 6 6 6 7 7 7 7 7 7 7 6 7 8 7 6 6 6 6 6 7
3 4 3 4 4 3 3 2 2 1 1 1 1 2 2 3 3 4 4 4 4 4 5 6 6 6 7 7 7 8 7 8 8 7 8 9 8 7 6 6 6 7 7
3 4 4 4 3 3 3 2 1 1 1 1 1 1 2 2 4 4 4 4 4 5 5 5 6 6 7 7 8 8 8 8 8 8 8 9 7 8 7 6 7 7 7
3 4 4 3 3 3 2 1 1 0 0 0 1 1 2 3 3 4 4 4 4 5 5 6 6 6 7 7 8 8 9 9 9 8 8 8 8 8 7 7 7 7 6
3 3 3 3 3 2 2 1 0 0 0 1 2 2 2 3 3 4 4 4 4 5 5 6 6 6 7 8 8 8 9 9 8 8 8 8 8 8 7 7 7 7 7
4 4 3 3 2 2 1 1 1 0 0 1 2 2 2 2 3 3 4 4 4 5 5 5 6 6 6 6 6 7 8 7 7 7 7 7 7 7 6 6 7 7 7
4 4 4 3 3 2 1 1 1 0 1 1 2 2 2 2 3 3 3 4 5 5 5 5 5 6 5 1 3 6 7 7 7 6 7 7 8 8 8 9 9 9 9
4 4 4 3 2 2 1 1 1 1 0 1 2 2 2 3 3 4 4 4 4 5 5 5 5 5 3 1 3 6 7 7 6 7 7 7 6 6 8 8 10 11 12
5 4 3 3 2 2 1 1 1 1 0 1 2 2 2 3 4 4 4 4 4 5 5 5 6 5 3 3 4 5 7 6 6 7 7 7 7 6 6 7 8 9 9
4 4 3 3 3 2 1 1 1 0 1 2 3 3 3 4 4 4 5 5 5 5 6 6 5 5 4 3 5 5 5 5 7 7 7 7 7 4 5 7 8 8 7
4 4 4 3 3 2 1 2 1 1 2 3 3 4 4 4 5 5 5 5 5 6 6 5 4 5 4 3 4 6 5 5 5 5 6 7 7 5 6 7 7 8 7
4 4 4 3 3 2 2 2 1 2 3 3 4 4 4 5 5 5 5 5 6 6 6 6 5 5 4 4 5 5 5 5 5 4 4 3 5 6 7 7 7 8 7
5 5 4 3 2 2 2 2 2 2 3 3 4 4 5 6 5 5 5 5 6 6 6 5 5 4 3 4 4 6 7 6 5 5 4 2 3 5 7 7 7 7 7
5 4 4 3 2 2 2 2 2 3 3 3 4 4 5 5 5 6 6 5 5 5 5 4 4 3 2 2 6 7 7 7 6 5 3 3 4 5 7 8 8 7 6
5 5 4 3 2 2 2 2 3 3 3 4 4 4 5 5 5 5 5 5 5 5 5 5 4 4 3 2 2 2 4 6 6 5 4 6 8 8 7 6 6 6 5
4 4 3 3 2 2 2 3 3 3 4 4 4 5 5 5 5 5 4 5 4 4 5 6 5 5 4 3 4 4 4 4 4 4 5 5 5 5 5 5 5 5 5
3 3 3 3 2 2 2 3 3 3 4 4 5 4 5 4 5 5 4 2 3 2 4 5 6 4 3 3 4 5 5 5 5 6 6 6 5 5 5 5 5 5 5
Wind_Direction
192 190 192 190 181 179 187 189 190 180 189 196 211 210 213 221 223 219 204 219 227 222 231 236 209 232 230 235 235 238 229 234 235 245 244 238 233 234 234 236 239 228 229
190 185 190 192 194 191 196 198 199 191 196 192 218 230 239 233 233 229 206 217 219 224 221 229 228 226 228 222 228 235 245 236 224 243 252 246 226 223 228 224 223 230 232
203 192 195 202 203 201 203 204 202 201 198 190 201 205 210 230 220 218 211 212 219 222 235 226 234 234 236 220 225 226 233 240 228 232 248 255 250 240 214 226 229 229 236
206 200 201 207 206 204 202 200 196 198 192 197 206 214 225 234 239 238 220 214 217 222 219 223 225 235 240 228 230 225 236 240 241 222 234 262 292 264 236 217 222 229 234
209 203 203 205 205 203 199 190 189 192 191 203 204 215 232 238 234 234 220 228 215 220 220 218 221 229 238 234 240 229 238 237 246 244 234 234 238 248 252 245 233 231 233
209 205 201 199 202 201 195 185 182 187 191 203 215 223 233 243 244 242 231 231 224 222 221 225 224 229 235 231 233 233 230 243 248 254 249 243 238 241 245 249 241 241 240
204 203 203 198 198 195 190 181 177 185 194 204 218 229 236 241 240 243 236 245 244 232 220 228 227 230 232 234 233 233 240 235 237 244 249 252 254 256 255 256 253 254 249
207 207 204 199 194 190 188 188 183 187 194 202 211 220 231 238 238 238 255 252 259 256 234 232 231 235 235 235 231 238 233 231 235 242 244 249 249 249 249 250 252 256 256
208 209 200 189 183 183 179 182 184 198 208 214 216 217 227 246 249 238 242 249 251 251 239 236 234 238 237 236 232 239 238 234 236 240 236 240 244 242 248 250 247 253 261
201 198 184 172 172 171 162 164 176 191 213 224 228 229 240 243 250 258 254 254 253 256 249 244 241 237 235 234 233 239 236 239 240 244 247 245 247 245 244 246 248 251 256
188 177 169 160 154 156 157 154 160 172 194 219 233 252 258 254 250 247 243 242 246 248 248 249 250 245 241 239 235 241 242 242 243 243 242 241 246 245 243 243 246 247 252
174 165 156 153 155 153 151 150 164 181 192 201 226 252 259 260 259 256 252 249 251 250 251 252 251 250 247 242 239 241 242 242 243 243 245 244 237 236 244 247 250 251 251
166 158 149 150 146 142 144 147 177 173 192 239 265 267 265 261 263 268 266 262 258 257 258 255 252 253 249 243 242 243 244 243 243 243 244 244 242 239 241 247 253 255 253
161 157 145 141 136 136 137 130 94 52 253 291 288 283 278 278 276 276 271 266 262 259 259 259 258 254 252 250 248 248 247 244 242 241 242 242 240 242 245 246 250 253 257
162 157 149 135 130 123 125 102 80 62 298 275 280 280 277 278 282 281 276 274 273 265 264 264 262 259 253 251 253 250 245 241 241 241 243 244 241 243 246 253 253 252 251
169 159 150 146 143 141 135 119 121 139 256 279 294 302 299 283 281 279 280 280 278 277 270 265 265 264 268 290 262 261 253 250 248 247 248 245 232 229 225 237 245 251 250
169 161 153 148 150 156 157 157 157 175 205 305 308 312 302 293 289 286 283 280 280 277 269 268 267 267 274 236 238 247 256 253 251 250 251 254 249 240 244 232 233 241 243
167 158 153 153 161 159 157 173 174 189 259 315 316 314 303 304 305 296 289 288 285 281 275 269 268 264 257 206 226 242 246 254 253 252 251 251 253 249 252 248 245 246 244
163 156 158 154 155 158 166 192 214 255 299 308 300 304 306 305 302 301 302 298 290 285 280 272 267 265 256 214 220 241 249 249 252 252 248 246 248 230 233 246 249 252 253
163 160 159 155 153 155 188 216 235 270 292 301 303 310 307 300 296 299 298 298 288 284 282 282 279 271 266 220 218 236 254 258 257 250 244 229 233 223 219 240 246 249 252
167 168 169 166 154 164 199 236 264 289 301 304 306 311 309 297 292 293 290 290 285 285 283 282 273 263 258 218 209 229 255 267 266 264 255 236 180 206 223 238 250 253 258
168 171 173 167 159 179 211 242 278 300 302 302 306 312 306 301 306 298 288 287 286 277 268 265 267 258 237 222 202 208 233 264 271 272 271 255 177 219 233 239 248 246 247
170 176 179 176 184 205 229 258 289 296 296 299 304 305 304 302 299 295 292 286 278 279 285 284 283 284 275 201 193 205 221 239 254 275 292 274 236 241 241 236 235 234 238
177 180 186 196 208 225 249 272 287 293 292 294 298 298 297 297 299 296 293 296 299 298 301 299 296 294 287 292 274 242 232 225 237 257 255 233 234 239 248 243 228 231 239
185 192 197 206 216 234 263 275 281 280 284 288 289 291 293 299 296 293 302 299 314 321 302 302 301 297 297 333 342 305 289 288 289 282 263 257 253 244 241 242 240 238 230
186 198 207 215 234 249 266 279 280 272 278 281 286 289 289 296 296 296 293 275 259 250 254 272 285 293 292 287 278 274 273 271 266 263 258 260 258 255 256 256 253 243 236